{"data":{"norad_id":62818,"epoch":"2026-05-25T04:23:27.634272Z","epoch_age_seconds":69401,"freshness":"FRESH","line1":"1 62818U 25018N   26145.18295873  .00066559  00000+0  22388-2 0  9997","line2":"2 62818  53.1621 314.0222 0011295  81.3684 278.8596 15.30153004 74892","mean_motion":15.30153004,"eccentricity":0.0011295,"inclination_deg":53.1621,"raan_deg":314.0222,"arg_perigee_deg":81.3684,"mean_anomaly_deg":278.8596,"bstar":0.0022388,"rev_number":7489,"period_min":94.10823598919,"perigee_km":467.61437493598,"apogee_km":483.09641425537,"semimajor_km":6853.4923945957,"source":"CELESTRAK","updated_at":"2026-05-25T13:38:19.775538Z"}}